Hourly Data Report for July 20, 2021

WIARTON A
ONTARIO
Current Station Operator: NAVCAN

44°44'39.000" N
81°06'31.000" W
221.90 m
6119499
71633
YVV

Download Data

Hourly Data (July 2021)
Hourly Data Report for July 20, 2021
TIME
LST
Temp Definition
°C
Dew Point Definition
°C
Rel Hum Definition
%
Precip. Amount Definition
mm

Wind Dir Definition
10's deg

Wind Spd Definition
km/h
Visibility Definition
km
Stn Press Definition
kPa
Hmdx Definition


Wind Chill Definition


Weather Definition


00:00 18.1 17.4 96   19 7 12.9 99.01     LegendNANA
01:00 17.8 16.9 94   22 5 12.9 98.95     Mostly Cloudy
02:00 17.8 16.7 93   21 8 12.9 98.90     LegendNANA
03:00 17.3 16.6 95   21 10 9.7 98.87     Fog
04:00 17.7 16.9 95   21 10 9.7 98.85     Fog
05:00 17.8 17.2 97   21 9 6.4 98.84     Fog
06:00 18.8 18.1 96   23 9 6.4 98.81     Fog
07:00 19.9 18.5 91   24 7 6.4 98.81     Fog
08:00 21.8 19.2 85   25 10 8.1 98.79 29   Haze
09:00 22.4 18.0 76   28 14 9.7 98.77 28   Haze
10:00 22.9 18.6 77   26 12 12.9 98.75 29   Cloudy
11:00 22.5 18.9 80   27 11 16.1 98.72 29   LegendNANA
12:00 21.3 17.9 81   3 11 16.1 98.77 27   Thunderstorms
13:00 18.4 17.8 97   5 8 6.4 98.80     Thunderstorms,Rain Showers, Fog
14:00 18.7 18.2 97   1 9 16.1 98.80     Thunderstorms
15:00 17.3 16.8 97   2 12 16.1 98.82     LegendNANA
16:00 17.1 15.8 91   1 13 19.3 98.86     Cloudy
17:00 17.5 15.5 88   2 14 19.3 98.83     LegendNANA
18:00 17.0 15.2 89   3 11 19.3 98.86     LegendNANA
19:00 16.2 14.1 87   3 14 19.3 98.94     Cloudy
20:00 16.1 13.7 85   3 18 19.3 98.98     LegendNANA
21:00 16.1 13.0 82   5 14 24.1 99.04     LegendNANA
22:00 15.9 12.9 82   3 13 24.1 99.06     Mainly Clear
23:00 14.8 12.3 85   5 10 24.1 99.07     LegendNANA

Notes on Data Quality.

Legend

  • E = Estimated
  • M = Missing
  • NA = Not Available*
  • [empty] = Indicates an unobserved value
Date modified: